When you browse on this site, cookies collect data to enhance your experience and personalize the content and advertising you see.
Visit our Privacy Policy to learn more. By continuing to use the site, you agree to this use of cookies and data.

Hourly Weather Guadalajara

Today, 15 July, Wednesday

Time Temperature Precipitation Wind Pressure Humidity
00:00 +20°C° 0 mm 3 mps 702 mmHg 48%
01:00 +19°C° 0 mm 3 mps 701 mmHg 45%
02:00 +19°C° 0 mm 3 mps 701 mmHg 43%
03:00 +18°C° 0 mm 4 mps 701 mmHg 40%
04:00 +18°C° 0 mm 4 mps 701 mmHg 39%
05:00 +18°C° 0 mm 4 mps 702 mmHg 38%
06:00 +18°C° 0 mm 4 mps 702 mmHg 37%
07:00 +20°C° 0 mm 4 mps 702 mmHg 35%
08:00 +22°C° 0 mm 4 mps 702 mmHg 34%
09:00 +25°C° 0 mm 4 mps 703 mmHg 32%
10:00 +27°C° 0 mm 4 mps 703 mmHg 30%
11:00 +28°C° 0 mm 3 mps 703 mmHg 28%
12:00 +30°C° 0 mm 3 mps 703 mmHg 26%
13:00 +30°C° 0 mm 3 mps 703 mmHg 24%
14:00 +31°C° 0 mm 3 mps 703 mmHg 23%
15:00 +33°C° 0 mm 3 mps 703 mmHg 21%
16:00 +32°C° 0 mm 4 mps 702 mmHg 23%
17:00 +32°C° 0 mm 4 mps 702 mmHg 25%
18:00 +30°C° 0 mm 5 mps 702 mmHg 27%
19:00 +28°C° 0 mm 5 mps 702 mmHg 33%
20:00 +26°C° 0 mm 5 mps 703 mmHg 39%
21:00 +23°C° 0 mm 6 mps 703 mmHg 45%
22:00 +22°C° 0 mm 5 mps 703 mmHg 45%
23:00 +21°C° 0 mm 4 mps 703 mmHg 45%

Tomorrow, 16 July, Thursday

Time Temperature Precipitation Wind Pressure Humidity
00:00 +20°C° 0 mm 4 mps 703 mmHg 45%
01:00 +20°C° 0 mm 4 mps 703 mmHg 44%
02:00 +19°C° 0 mm 3 mps 703 mmHg 44%
03:00 +19°C° 0 mm 3 mps 703 mmHg 43%
04:00 +19°C° 0 mm 3 mps 703 mmHg 43%
05:00 +19°C° 0 mm 3 mps 703 mmHg 43%
06:00 +19°C° 0 mm 3 mps 703 mmHg 43%
07:00 +21°C° 0 mm 2 mps 703 mmHg 39%
08:00 +25°C° 0 mm 2 mps 704 mmHg 35%
09:00 +27°C° 0 mm 1 mps 704 mmHg 31%
10:00 +29°C° 0 mm 1 mps 704 mmHg 28%
11:00 +31°C° 0 mm 1 mps 704 mmHg 25%
12:00 +32°C° 0 mm 1 mps 704 mmHg 23%
13:00 +33°C° 0 mm 1 mps 703 mmHg 21%
14:00 +34°C° 0 mm 1 mps 703 mmHg 20%
15:00 +35°C° 0 mm 1 mps 703 mmHg 18%
16:00 +35°C° 0 mm 1 mps 703 mmHg 19%
17:00 +34°C° 0 mm 1 mps 702 mmHg 19%
18:00 +34°C° 0 mm 1 mps 702 mmHg 20%
19:00 +32°C° 0 mm 2 mps 702 mmHg 25%
20:00 +30°C° 0 mm 3 mps 702 mmHg 30%
21:00 +27°C° 0 mm 4 mps 702 mmHg 35%
22:00 +26°C° 0 mm 4 mps 702 mmHg 38%
23:00 +25°C° 0 mm 4 mps 702 mmHg 41%

Day after tomorrow, 17 July, Friday

Time Temperature Precipitation Wind Pressure Humidity
00:00 +23°C° 0 mm 4 mps 702 mmHg 44%
01:00 +22°C° 0 mm 4 mps 702 mmHg 44%
02:00 +22°C° 0 mm 4 mps 702 mmHg 43%
03:00 +21°C° 0 mm 4 mps 702 mmHg 43%
04:00 +21°C° 0 mm 4 mps 702 mmHg 42%
05:00 +21°C° 0 mm 3 mps 702 mmHg 40%
06:00 +21°C° 0 mm 3 mps 702 mmHg 39%
07:00 +23°C° 0 mm 4 mps 702 mmHg 35%
08:00 +26°C° 0 mm 4 mps 702 mmHg 31%
09:00 +28°C° 0 mm 4 mps 702 mmHg 27%
10:00 +30°C° 0 mm 4 mps 702 mmHg 24%
11:00 +31°C° 0 mm 3 mps 702 mmHg 21%
12:00 +33°C° 0 mm 3 mps 702 mmHg 18%
13:00 +34°C° 0 mm 3 mps 702 mmHg 17%
14:00 +35°C° 0 mm 3 mps 702 mmHg 15%
15:00 +35°C° 0 mm 3 mps 701 mmHg 14%
16:00 +35°C° 0 mm 3 mps 701 mmHg 14%
17:00 +35°C° 0 mm 3 mps 701 mmHg 15%
18:00 +35°C° 0 mm 3 mps 701 mmHg 15%
19:00 +32°C° 0 mm 4 mps 701 mmHg 21%
20:00 +28°C° 0 mm 5 mps 702 mmHg 28%
21:00 +25°C° 0 mm 5 mps 702 mmHg 34%
22:00 +23°C° 0 mm 5 mps 702 mmHg 35%
23:00 +22°C° 0 mm 4 mps 702 mmHg 37%

18 July, Saturday

Time Temperature Precipitation Wind Pressure Humidity
00:00 +21°C° 0 mm 4 mps 702 mmHg 39%
01:00 +20°C° 0 mm 3 mps 701 mmHg 40%
02:00 +19°C° 0 mm 3 mps 701 mmHg 41%
03:00 +19°C° 0 mm 3 mps 701 mmHg 43%
04:00 +19°C° 0 mm 2 mps 701 mmHg 43%
05:00 +19°C° 0 mm 2 mps 701 mmHg 43%
06:00 +19°C° 0 mm 2 mps 701 mmHg 44%
07:00 +21°C° 0 mm 2 mps 701 mmHg 41%
08:00 +25°C° 0 mm 2 mps 702 mmHg 39%
09:00 +27°C° 0 mm 2 mps 702 mmHg 36%
10:00 +29°C° 0 mm 1 mps 702 mmHg 31%
11:00 +31°C° 0 mm 1 mps 702 mmHg 25%
12:00 +33°C° 0 mm 1 mps 702 mmHg 20%
13:00 +34°C° 0 mm 1 mps 701 mmHg 17%
14:00 +35°C° 0 mm 1 mps 701 mmHg 15%
15:00 +36°C° 0 mm 1 mps 701 mmHg 12%
16:00 +36°C° 0 mm 1 mps 701 mmHg 12%
17:00 +36°C° 0 mm 1 mps 701 mmHg 12%
18:00 +36°C° 0 mm 1 mps 700 mmHg 12%
19:00 +34°C° 0 mm 2 mps 701 mmHg 15%
20:00 +31°C° 0 mm 2 mps 701 mmHg 18%
21:00 +28°C° 0 mm 3 mps 701 mmHg 22%
22:00 +27°C° 0 mm 3 mps 701 mmHg 25%
23:00 +26°C° 0 mm 3 mps 701 mmHg 27%

19 July, Sunday

Time Temperature Precipitation Wind Pressure Humidity
00:00 +25°C° 0 mm 2 mps 700 mmHg 30%
01:00 +24°C° 0 mm 2 mps 700 mmHg 38%
02:00 +24°C° 0 mm 1 mps 700 mmHg 46%
03:00 +23°C° 0 mm 1 mps 700 mmHg 53%
04:00 +23°C° 0 mm 1 mps 700 mmHg 56%
05:00 +23°C° 0 mm 1 mps 700 mmHg 58%
06:00 +23°C° 0 mm 1 mps 701 mmHg 61%
07:00 +25°C° 0 mm 2 mps 701 mmHg 55%
08:00 +28°C° 0 mm 2 mps 701 mmHg 48%
09:00 +30°C° 0 mm 2 mps 701 mmHg 42%
10:00 +33°C° 0 mm 3 mps 701 mmHg 36%
11:00 +35°C° 0 mm 3 mps 701 mmHg 29%
12:00 +37°C° 0 mm 3 mps 701 mmHg 23%
13:00 +38°C° 0 mm 4 mps 701 mmHg 21%
14:00 +40°C° 0 mm 4 mps 701 mmHg 19%
15:00 +40°C° 0 mm 4 mps 701 mmHg 17%
16:00 +40°C° 0 mm 4 mps 700 mmHg 17%
17:00 +40°C° 0 mm 4 mps 700 mmHg 18%
18:00 +38°C° 0 mm 4 mps 700 mmHg 18%
19:00 +36°C° 0 mm 3 mps 700 mmHg 23%
20:00 +33°C° 0 mm 3 mps 700 mmHg 28%
21:00 +30°C° 0 mm 2 mps 701 mmHg 34%
22:00 +29°C° 0.1 mm 3 mps 701 mmHg 38%
23:00 +28°C° 0.1 mm 3 mps 701 mmHg 42%

20 July, Monday

Time Temperature Precipitation Wind Pressure Humidity
00:00 +27°C° 0.1 mm 3 mps 701 mmHg 46%
01:00 +26°C° 0 mm 3 mps 700 mmHg 47%
02:00 +26°C° 0 mm 2 mps 700 mmHg 49%
03:00 +25°C° 0 mm 2 mps 700 mmHg 50%
04:00 +25°C° 0 mm 2 mps 700 mmHg 51%
05:00 +25°C° 0 mm 2 mps 701 mmHg 51%
06:00 +25°C° 0 mm 2 mps 701 mmHg 51%
07:00 +27°C° 0 mm 2 mps 701 mmHg 45%
08:00 +29°C° 0 mm 2 mps 701 mmHg 38%
09:00 +31°C° 0 mm 2 mps 702 mmHg 32%
10:00 +34°C° 0 mm 3 mps 702 mmHg 28%
11:00 +36°C° 0 mm 3 mps 702 mmHg 24%
12:00 +37°C° 0 mm 3 mps 702 mmHg 20%
13:00 +37°C° 0 mm 4 mps 701 mmHg 20%
14:00 +38°C° 0 mm 4 mps 701 mmHg 20%
15:00 +38°C° 0 mm 4 mps 701 mmHg 20%
16:00 +37°C° 0 mm 5 mps 701 mmHg 20%
17:00 +37°C° 0 mm 5 mps 700 mmHg 21%
18:00 +36°C° 0 mm 5 mps 700 mmHg 22%
19:00 +34°C° 0 mm 5 mps 701 mmHg 25%
20:00 +33°C° 0 mm 5 mps 701 mmHg 29%
21:00 +30°C° 0 mm 4 mps 701 mmHg 32%
22:00 +29°C° 0 mm 4 mps 701 mmHg 34%
23:00 +29°C° 0 mm 4 mps 701 mmHg 36%
Show more